Location: Bratsk-Energetik
(56.3300°N, 101.7600°E)
Time: 16:06:55
(UTC+08:00)

ISS - Visible Passes

Search period start: 30 November 2023 00:00
Search period end: 10 December 2023 00:00
Orbit: 416 x 417 km, 51.6° (Epoch: 30 November)

Date Brightness Start Highest point End Pass type
(mag) Time Alt. Az. Time Alt. Az. Time Alt. Az.
30 Nov -2.3 18:16:57 10° WSW 18:20:02 34° S 18:23:05 10° ESE visible
30 Nov -1.2 19:53:53 10° WSW 19:56:00 17° SSW 19:56:00 17° SSW visible
01 Dec -2.3 17:28:38 10° WSW 17:31:46 36° S 17:34:53 10° ESE visible
01 Dec -1.5 19:05:20 10° WSW 19:07:59 22° SSW 19:09:49 15° SSE visible
02 Dec -1.8 18:16:50 10° WSW 18:19:44 26° SSW 18:22:36 10° SE visible
03 Dec -1.9 17:28:23 10° WSW 17:31:23 31° SSW 17:34:24 10° SE visible
03 Dec -0.8 19:05:39 10° WSW 19:07:26 14° SSW 19:09:13 10° S visible
04 Dec -1.0 18:16:47 10° WSW 18:19:09 18° SSW 18:21:30 10° SSE visible
05 Dec -1.2 17:28:05 10° WSW 17:30:47 22° SSW 17:33:28 10° SSE visible
06 Dec -0.3 18:17:33 10° SW 18:18:16 11° SW 18:18:58 10° SSW visible
07 Dec -0.6 17:27:58 10° WSW 17:29:52 14° SSW 17:31:45 10° S visible
